Location: G�rlitz
(51.1670°N, 15.0000°E)
Time: 16:29:19
(UTC+02:00)

METEOR M2 - Visible Passes

Search period start: 19 April 2026 00:00
Search period end: 29 April 2026 00:00
Orbit: 817 x 824 km, 98.5° (Epoch: 19 April)

Date Brightness Start Highest point End Pass type
(mag) Time Alt. Az. Time Alt. Az. Time Alt. Az.
19 Apr ? 04:38:21 10° NNE 04:43:12 33° E 04:47:59 10° SSE visible
20 Apr ? 04:18:04 10° NE 04:22:19 23° E 04:26:31 10° SE visible
21 Apr ? 03:58:06 10° NE 04:01:22 16° E 04:04:37 10° SE visible
22 Apr ? 03:39:08 10° ENE 03:40:21 11° E 03:41:35 10° E visible
23 Apr ? 04:55:38 10° NNE 05:00:47 45° E 05:05:54 10° S visible
24 Apr ? 04:35:12 10° NNE 04:39:58 31° E 04:44:42 10° SSE visible
25 Apr ? 04:14:57 10° NE 04:19:05 22° E 04:23:11 10° SE visible
26 Apr ? 03:55:02 10° NE 03:58:08 15° E 04:01:12 10° ESE visible
27 Apr ? 03:36:48 10° ENE 03:37:06 10° E 03:37:25 10° E visible
28 Apr ? 04:52:27 10° NNE 04:57:35 43° E 05:02:38 10° S visible
